Date,TemperatureHighF,TemperatureAvgF,TemperatureLowF,DewpointHighF,DewpointAvgF,DewpointLowF,HumidityHigh,HumidityAvg,HumidityLow,PressureMaxIn,PressureMinIn,WindSpeedMaxMPH,WindSpeedAvgMPH,GustSpeedMaxMPH,PrecipitationSumIn
2012-1-1,58,46,41,41,36,31,79,67,43,30.33,30.08,7,1,7,0.00
2012-1-2,51,46,40,47,39,34,92,78,54,30.26,29.91,45,5,45,0.37
2012-1-3,54,50,48,48,45,43,91,83,76,30.31,30.18,19,3,19,0.01
2012-1-4,54,50,46,50,46,42,95,85,64,30.21,30.02,33,7,33,0.54
2012-1-5,50,46,40,45,40,36,87,80,71,30.39,30.17,31,8,31,0.03
2012-1-6,42,40,39,38,37,36,91,86,80,30.39,30.30,12,3,12,0.03
2012-1-7,46,43,39,42,39,36,92,88,78,30.48,30.36,16,3,16,0.00
2012-1-8,52,46,43,43,41,39,87,81,67,30.41,30.24,19,3,19,0.00
2012-1-9,51,48,43,45,42,37,90,80,71,30.31,30.23,24,5,24,0.12
2012-1-10,45,41,35,37,34,31,87,76,58,30.56,30.30,12,1,12,0.02
2012-1-11,45,37,32,32,29,26,88,71,50,30.55,30.41,12,2,12,0.00
2012-1-12,45,38,32,33,29,24,82,69,51,30.43,30.30,7,1,7,0.00
2012-1-13,43,37,30,35,32,28,93,82,71,30.35,30.08,6,1,6,0.00
2012-1-14,42,38,34,39,34,30,94,85,76,30.09,29.90,27,5,27,0.26
2012-1-15,36,34,30,33,31,28,94,89,80,30.13,30.00,18,2,18,0.18
2012-1-16,37,35,31,34,32,28,95,88,83,30.15,29.96,29,8,29,0.07
2012-1-17,37,36,33,34,32,26,93,87,74,30.00,29.82,29,5,29,0.06
2012-1-18,34,30,28,30,28,21,95,90,61,30.00,29.65,16,3,16,0.00
2012-1-19,31,29,28,29,26,25,93,91,89,29.83,29.60,9,1,9,0.00
2012-1-20,44,37,31,42,36,29,97,96,90,29.79,29.06,20,1,20,1.27
2012-1-21,48,7,43,45,-77,-100,93,15,87,29.93,29.04,30,-836,30,0.25
2012-1-22,46,33,38,42,10,-100,91,67,71,29.92,29.44,13,-200,13,0.02
2012-1-23,51,10,37,40,-67,-100,91,20,65,30.06,29.84,9,-761,9,0.00
2012-1-24,53,37,39,49,16,-100,95,71,73,30.03,29.66,30,-175,30,0.12
2012-1-25,49,45,42,42,39,37,93,80,66,30.28,29.92,36,8,36,0.20
2012-1-26,49,43,36,46,38,33,92,82,64,30.63,29.93,28,4,28,0.30
2012-1-27,46,38,33,36,33,28,96,82,51,30.67,30.52,7,1,7,0.00
2012-1-28,48,41,36,36,33,30,89,72,56,30.53,30.11,15,3,15,0.01
2012-1-29,50,48,44,47,44,32,94,87,59,30.11,29.78,25,7,25,0.38
2012-1-30,48,47,45,46,42,40,96,85,75,30.08,29.85,24,7,24,0.12
2012-1-31,51,46,44,42,37,-100,92,76,66,30.09,29.90,25,-14,25,0.00
2012-2-1,49,45,42,43,41,37,96,87,72,30.49,29.89,10,2,10,0.48
2012-2-2,49,43,38,40,37,35,92,81,59,30.51,30.28,7,1,7,0.00
2012-2-3,63,47,36,42,31,26,87,59,27,30.28,30.08,14,1,14,0.00
2012-2-4,61,48,36,40,31,27,81,56,33,30.22,30.14,9,1,9,0.00
2012-2-5,57,44,36,39,34,28,83,68,39,30.26,30.15,9,1,9,0.00
2012-2-6,61,46,35,40,32,24,87,60,26,30.16,29.94,9,1,9,0.00
2012-2-7,63,49,37,39,30,25,78,50,24,30.04,29.86,14,3,20,0.00
2012-2-8,51,48,44,47,43,34,91,84,55,30.30,30.04,16,2,17,0.08
2012-2-9,52,48,46,49,46,43,95,90,83,30.30,30.06,8,0,8,0.09
2012-2-10,57,50,46,50,45,43,95,86,65,30.08,29.93,15,2,15,0.11
2012-2-11,48,47,44,45,42,40,94,83,74,30.18,30.08,23,6,23,0.01
2012-2-12,48,46,43,42,40,38,91,81,69,30.16,29.91,15,2,15,0.02
2012-2-13,47,44,43,43,42,41,94,89,83,30.08,29.95,13,1,13,0.28
2012-2-14,45,41,36,41,36,-100,95,86,76,30.23,29.94,23,-6,23,0.02
2012-2-15,46,41,37,40,38,36,96,88,74,30.41,30.23,12,2,12,0.00
2012-2-16,46,43,40,44,40,36,95,88,79,30.33,30.23,21,4,21,0.02
2012-2-17,51,46,43,47,43,40,96,89,80,30.29,29.84,34,5,34,0.34
2012-2-18,47,43,41,42,39,37,89,86,83,30.08,29.90,39,12,39,0.15
2012-2-19,45,42,39,38,35,32,87,76,65,30.12,29.93,19,6,19,0.00
2012-2-20,47,43,38,45,39,32,94,85,76,30.03,29.90,20,3,20,0.06
2012-2-21,51,50,47,47,46,45,95,89,85,30.09,30.00,30,8,30,0.06
2012-2-22,56,48,41,47,40,36,93,76,50,30.34,29.95,27,5,27,0.12
2012-2-23,46,42,40,37,36,35,82,78,69,30.41,30.34,19,5,19,0.00
2012-2-28,46,42,38,35,31,26,88,67,47,29.69,29.52,23,5,23,0.11
2012-2-29,42,40,38,37,36,35,87,85,82,29.81,29.63,28,10,28,0.05
2012-3-1,45,41,37,38,35,32,89,80,66,30.37,29.81,17,4,17,0.00
2012-3-2,46,43,41,42,39,36,90,84,77,30.42,30.34,26,8,26,0.04
2012-3-3,56,50,46,46,44,42,89,81,67,30.38,30.33,28,8,28,0.00
2012-3-4,52,49,47,43,42,40,87,79,70,30.37,30.00,29,10,29,0.00
2012-3-5,48,43,37,42,37,28,90,80,65,30.00,29.71,43,7,43,0.10
2012-3-6,46,40,35,32,29,24,91,67,44,30.39,29.92,15,2,15,0.00
2012-3-7,49,40,31,33,28,23,88,64,39,30.50,30.39,7,1,7,0.00
2012-3-8,61,47,35,41,35,29,85,65,42,30.42,30.16,17,2,17,0.00
2012-3-9,49,47,46,45,42,40,95,84,73,30.26,29.98,21,7,21,0.20
2012-3-10,46,46,44,44,42,40,95,89,80,29.99,29.65,20,5,20,0.25
2012-3-11,46,42,40,43,37,32,92,81,67,29.78,29.59,29,10,29,0.20
2012-3-12,47,43,38,42,36,31,91,79,60,29.69,29.35,35,8,35,0.62
2012-3-13,43,38,35,36,34,33,93,86,72,29.91,29.39,31,9,31,0.13
2012-3-14,45,40,35,42,37,31,93,88,79,29.91,29.71,25,4,25,0.38
2012-3-15,53,47,43,47,44,41,93,87,78,29.71,29.48,33,8,33,0.56
2012-3-16,50,45,41,42,39,36,92,78,65,29.72,29.39,32,7,32,0.09
2012-3-17,50,42,35,41,38,33,94,84,61,29.68,29.36,15,3,15,0.43
2012-3-18,42,39,36,37,36,34,93,87,76,29.87,29.64,10,1,10,0.25
2012-3-19,46,40,33,37,33,27,92,76,50,29.93,29.67,20,4,20,0.01
2012-3-20,48,43,39,41,37,34,92,80,59,29.99,29.53,32,10,32,0.04
2012-3-21,51,44,38,36,33,27,87,67,41,30.05,29.83,25,4,25,0.00
2012-3-22,51,43,38,37,35,30,90,73,47,30.06,29.83,16,3,16,0.14
2012-3-23,57,45,35,38,33,24,93,67,31,30.09,29.98,9,2,9,0.00
2012-3-24,60,48,38,40,36,33,84,66,39,30.08,29.90,13,2,13,0.00
2012-3-25,59,49,39,42,38,34,86,68,53,29.91,29.71,13,2,13,0.00
2012-3-26,55,49,45,43,39,33,87,71,45,29.83,29.75,21,6,21,0.00
2012-3-27,61,51,44,47,43,38,90,75,46,29.76,29.50,21,2,21,0.14
2012-3-28,53,49,46,46,41,38,87,73,61,29.81,29.55,36,8,36,0.09
2012-3-29,50,47,43,46,43,39,94,87,69,29.69,29.44,25,6,25,0.86
2012-3-30,50,46,41,44,41,37,93,82,70,29.78,29.48,34,6,34,0.11
2012-3-31,49,43,39,44,40,36,93,87,77,29.74,29.43,9,2,10,0.49
2012-4-1,49,46,43,43,39,37,92,78,67,30.22,29.51,39,10,39,0.01
2012-4-2,63,53,44,39,36,32,77,55,35,30.26,29.88,19,5,19,0.00
2012-4-3,56,48,40,45,39,34,88,71,43,30.02,29.76,21,6,21,0.06
2012-4-4,53,44,40,39,37,29,89,76,45,30.13,29.98,9,2,9,0.00
2012-4-5,52,44,40,40,38,36,92,81,60,30.19,30.13,12,2,12,0.09
2012-4-6,55,46,41,39,36,28,88,70,38,30.33,30.19,13,3,13,0.04
2012-4-7,60,48,37,40,37,30,93,66,42,30.33,30.17,13,2,13,0.00
2012-4-8,70,57,44,40,34,26,70,45,20,30.20,29.99,11,2,11,0.00
2012-4-9,69,57,46,43,38,31,78,52,27,30.01,29.84,10,2,10,0.00
2012-4-10,65,57,50,46,44,40,81,64,48,29.84,29.73,15,3,15,0.00
2012-4-11,56,52,49,49,47,45,94,84,68,29.80,29.67,14,2,14,0.18
2012-4-12,61,51,45,47,43,40,94,77,49,29.84,29.71,24,3,24,0.00
2012-4-13,60,50,40,45,42,37,92,75,54,29.93,29.83,14,2,14,0.00
2012-4-14,62,51,42,45,42,38,93,72,41,30.17,29.93,14,3,14,0.00
2012-4-15,62,53,47,43,41,37,85,66,42,30.23,30.00,12,3,12,0.00
2012-4-16,58,52,47,50,45,38,95,77,52,30.22,29.89,29,7,29,0.16
2012-4-17,52,47,43,44,41,36,90,80,55,30.25,30.00,13,3,13,0.06
2012-4-18,57,50,46,45,43,39,92,77,53,30.10,29.97,23,5,23,0.07
2012-4-19,57,50,43,51,45,40,94,83,57,30.11,30.00,21,3,21,0.19
2012-4-20,56,51,46,51,43,39,93,77,54,30.27,30.04,22,3,22,0.24
2012-4-21,70,54,42,47,43,39,90,69,43,30.23,30.01,9,2,9,0.00
2012-4-22,74,60,49,50,46,42,83,63,41,30.03,29.88,10,2,10,0.00
2012-4-23,70,60,50,53,50,46,87,69,52,29.93,29.82,12,2,12,0.00
2012-4-24,58,54,52,53,49,47,92,83,75,29.95,29.83,19,4,19,0.01
2012-4-25,62,55,50,57,52,48,94,90,78,29.84,29.63,13,3,13,0.35
2012-4-26,59,51,47,49,44,36,95,78,44,30.05,29.62,23,6,23,0.15
2012-4-27,57,50,46,44,41,36,83,72,48,30.31,30.05,25,9,25,0.00
2012-4-28,62,55,48,50,45,43,88,71,53,30.31,30.20,13,3,13,0.00
2012-4-29,62,55,51,51,48,46,89,77,61,30.22,29.81,10,2,10,0.05
2012-4-30,56,51,47,48,45,41,92,80,62,29.92,29.67,37,11,37,0.15
2012-5-1,54,49,45,43,41,37,90,75,58,29.99,29.92,27,8,27,0.09
2012-5-2,58,50,44,41,38,34,88,66,42,30.03,29.78,15,4,15,0.01
2012-5-3,52,49,47,50,46,39,94,89,63,29.97,29.61,16,2,16,0.70
2012-5-4,54,48,45,45,43,40,90,82,63,30.38,29.96,18,5,18,0.41
2012-5-5,60,50,43,42,39,34,88,69,40,30.53,30.38,12,3,12,0.00
2012-5-6,64,53,41,45,41,36,92,67,37,30.53,30.38,12,2,12,0.00
2012-5-7,75,59,45,50,45,40,88,63,29,30.40,30.10,11,2,11,0.00
2012-5-8,66,56,50,50,46,39,85,69,54,30.18,30.10,13,3,13,0.00
2012-5-9,58,50,45,41,38,34,85,64,44,30.37,30.18,16,4,16,0.00
2012-5-10,60,50,42,38,34,24,82,57,28,30.46,30.34,13,2,13,0.00
2012-5-11,65,53,41,42,38,30,87,58,29,30.37,30.20,13,2,13,0.00
2012-5-12,75,61,45,46,42,33,79,51,29,30.25,30.12,13,2,13,0.00
2012-5-13,76,64,49,50,44,39,73,49,31,30.21,30.06,12,2,12,0.00
2012-5-14,79,67,54,51,46,41,71,48,28,30.08,29.98,12,2,12,0.00
2012-5-15,76,62,53,53,47,38,86,61,35,30.13,30.02,12,3,12,0.00
2012-5-16,70,60,50,47,43,39,79,55,40,30.12,30.03,15,3,15,0.00
2012-5-17,65,55,48,47,43,38,81,65,42,30.09,30.00,13,4,13,0.00
2012-5-18,60,52,46,44,42,39,79,68,48,30.21,30.07,18,4,18,0.00
2012-5-19,67,57,45,47,42,32,89,61,30,30.15,30.04,14,2,14,0.00
2012-5-20,61,57,54,55,50,41,94,76,50,30.04,29.95,14,2,14,0.11
2012-5-21,62,57,54,57,54,48,94,89,82,29.95,29.80,24,5,24,0.53
2012-5-22,56,53,51,50,47,45,87,82,72,29.95,29.88,26,8,26,0.05
2012-5-23,59,52,49,48,47,45,90,81,65,30.02,29.93,24,6,24,0.09
2012-5-24,65,54,48,49,45,40,92,72,48,30.01,29.81,14,3,14,0.08
2012-5-25,73,60,48,51,46,37,86,63,30,29.93,29.84,20,3,20,0.00
2012-5-26,76,62,51,53,50,46,91,66,38,29.98,29.84,21,4,21,0.00
2012-5-27,64,58,54,49,48,45,80,69,52,30.09,29.97,22,6,22,0.00
2012-5-28,63,57,52,50,47,42,86,70,48,30.15,30.06,23,5,23,0.01
2012-5-29,63,56,50,46,43,38,85,63,41,30.19,30.15,13,2,13,0.02
2012-5-30,67,59,53,52,46,41,87,64,40,30.27,30.16,13,2,13,0.01
2012-5-31,65,59,55,58,55,51,91,85,75,30.16,30.01,15,2,15,0.07
2012-6-1,68,62,55,61,57,52,94,84,68,30.01,29.90,26,5,26,0.10
2012-6-2,66,58,53,53,50,45,92,75,53,29.99,29.88,17,2,17,0.01
2012-6-3,63,56,51,46,42,38,76,62,43,30.01,29.91,14,3,14,0.00
2012-6-4,57,52,49,49,46,39,86,78,65,29.91,29.75,11,2,11,0.03
2012-6-5,57,52,49,50,48,44,93,86,70,30.24,29.83,11,3,11,0.77
2012-6-6,61,54,47,47,44,40,91,70,49,30.23,30.01,21,4,21,0.00
2012-6-7,61,54,50,54,48,44,94,80,62,30.01,29.82,28,4,28,0.57
2012-6-8,60,54,48,48,45,42,90,74,54,30.06,29.96,19,4,19,0.06
2012-6-9,65,55,49,48,47,45,91,74,54,30.25,30.06,16,4,16,0.00
2012-6-10,67,58,52,48,46,42,80,66,42,30.29,30.23,18,4,18,0.00
2012-6-11,76,63,49,52,48,42,88,61,32,30.23,30.07,10,2,10,0.00
2012-6-12,65,60,57,58,54,46,92,79,62,30.08,29.99,17,4,17,0.02
2012-6-13,59,56,52,53,48,45,88,77,67,30.21,30.03,15,4,18,0.02
2012-6-14,60,55,51,49,46,45,81,73,60,30.18,30.13,10,2,10,0.00
2012-6-15,73,61,48,51,47,42,86,62,35,30.21,30.14,10,2,10,0.00
2012-6-16,71,65,61,63,57,49,85,76,61,30.15,29.94,28,8,28,0.01
2012-6-17,68,61,55,58,53,48,88,76,59,29.96,29.88,26,8,26,0.00
2012-6-18,64,55,51,53,49,46,93,81,57,30.06,29.86,20,3,20,0.14
2012-6-19,67,58,51,52,48,44,91,72,45,30.18,30.05,16,4,16,0.02
2012-6-20,75,62,49,53,49,46,89,64,39,30.18,29.93,8,2,10,0.00
2012-6-21,74,64,54,52,50,48,82,61,42,29.96,29.77,10,2,10,0.00
2012-6-22,60,56,54,54,52,48,94,85,66,29.83,29.72,15,2,15,0.68
2012-6-23,64,56,52,56,50,-100,95,84,63,29.97,29.73,23,-7,23,0.33
2012-6-24,68,58,49,52,48,44,95,73,47,30.08,29.95,12,2,12,0.00
2012-6-25,66,59,49,53,49,45,86,72,59,30.06,29.95,10,2,10,0.00
2012-6-26,61,56,53,55,52,49,93,85,75,30.08,29.94,13,2,13,0.09
2012-6-27,74,62,49,52,47,36,94,63,27,30.10,29.92,10,2,10,0.00
2012-6-28,74,64,54,55,51,47,85,65,45,30.03,29.91,16,3,16,0.00
2012-6-29,71,65,60,60,57,55,93,77,63,30.08,30.01,16,4,16,0.01
2012-6-30,68,63,58,62,59,54,95,87,79,30.03,29.93,10,3,10,0.07
2012-7-1,66,59,55,56,53,49,94,81,61,30.09,29.98,10,2,10,0.05
2012-7-2,66,58,54,53,50,47,89,74,58,30.05,29.89,14,2,14,0.06
2012-7-3,63,58,54,55,51,49,94,80,63,30.17,29.85,29,7,29,0.31
2012-7-4,70,60,51,51,48,44,89,66,41,30.16,29.97,11,2,11,0.00
2012-7-5,76,64,50,51,47,40,82,58,30,30.06,29.98,11,2,11,0.00
2012-7-6,79,66,53,54,51,48,84,60,37,30.13,30.03,7,2,11,0.00
2012-7-7,78,66,54,56,52,49,83,62,41,30.18,30.03,14,3,14,0.00
2012-7-8,81,69,58,58,55,51,81,61,40,30.09,29.96,12,3,12,0.00
2012-7-9,78,66,57,61,57,53,88,74,53,30.12,30.02,14,3,14,0.00
2012-7-10,75,62,55,58,54,51,91,76,50,30.23,30.07,12,3,12,0.00
2012-7-11,80,68,57,61,57,54,92,70,43,30.09,29.97,12,2,12,0.00
2012-7-12,81,68,57,61,58,54,89,72,48,30.01,29.94,12,3,12,0.00
2012-7-13,74,64,58,61,58,55,92,80,61,30.07,29.95,14,3,14,0.18
2012-7-14,77,68,60,63,60,58,95,79,60,30.00,29.91,13,2,13,0.00
2012-7-15,66,61,57,58,55,52,92,80,65,29.97,29.90,26,6,26,0.00
2012-7-16,78,66,55,61,57,53,95,76,55,29.95,29.78,14,2,14,0.00
2012-7-17,74,67,61,63,60,56,88,78,68,29.93,29.79,15,3,15,0.00
2012-7-18,70,64,60,58,57,55,86,77,64,30.07,29.92,17,4,17,0.00
2012-7-19,77,68,59,61,58,55,87,71,55,30.07,29.90,12,2,12,0.00
2012-7-20,69,64,59,61,58,57,93,81,69,30.20,29.94,22,6,22,0.52
2012-7-21,76,67,61,59,56,52,84,70,44,30.21,30.07,16,4,16,0.00
2012-7-22,68,61,56,55,52,50,86,74,55,30.16,30.07,19,5,19,0.00
2012-7-23,67,60,55,55,52,50,86,77,61,30.24,30.16,21,5,21,0.01
2012-7-24,73,63,53,57,53,50,91,72,50,30.19,30.01,15,2,15,0.00
2012-7-25,79,67,56,61,56,52,88,70,50,30.05,29.91,12,2,12,0.00
2012-7-26,80,67,59,63,59,55,91,75,55,30.00,29.89,10,3,12,0.00
2012-7-27,66,61,57,58,56,54,91,81,73,30.12,29.95,14,4,14,0.00
2012-7-28,72,64,58,57,56,54,90,75,56,30.18,30.12,13,3,13,0.00
2012-7-29,73,65,59,57,55,53,83,71,53,30.19,30.09,12,2,12,0.00
2012-7-30,67,62,57,57,55,52,87,77,66,30.18,30.12,13,4,13,0.00
2012-7-31,73,64,57,56,53,51,82,70,51,30.19,30.15,12,2,12,0.00
2012-8-1,75,64,54,58,54,51,89,73,54,30.23,30.14,12,2,12,0.00
2012-8-2,74,64,56,58,55,51,86,73,57,30.20,30.11,12,2,12,0.00
2012-8-3,79,68,55,62,57,52,92,70,53,30.15,29.98,13,2,13,0.00
2012-8-4,89,76,63,64,60,56,79,60,41,29.98,29.82,14,2,14,0.00
2012-8-5,92,78,65,64,61,57,85,60,34,29.98,29.85,11,2,11,0.00
2012-8-6,82,70,63,63,59,56,83,70,52,30.10,29.98,14,3,14,0.00
2012-8-7,70,64,60,62,59,56,92,84,73,30.10,30.04,13,3,13,0.00
2012-8-8,71,65,61,57,56,53,83,71,56,30.23,30.08,16,4,16,0.00
2012-8-9,75,66,57,58,56,54,92,72,51,30.23,30.10,15,2,15,0.00
2012-8-10,76,67,56,58,55,53,88,68,48,30.15,30.05,15,2,15,0.00
2012-8-11,82,70,58,59,57,54,90,66,44,30.11,29.97,14,2,14,0.00
2012-8-12,84,72,59,62,58,54,84,64,46,30.01,29.91,13,2,13,0.00
2012-8-13,85,71,59,60,54,45,87,59,29,30.03,29.95,13,2,13,0.00
2012-8-14,80,70,60,64,58,52,87,68,46,30.01,29.89,14,2,14,0.00
2012-8-15,85,74,61,60,57,53,87,59,37,29.96,29.85,16,2,16,0.00
2012-8-16,94,77,64,61,57,52,74,52,27,29.94,29.86,11,2,11,0.00
2012-8-17,90,75,64,62,60,57,80,61,37,29.98,29.88,9,2,9,0.00
2012-8-18,71,65,60,62,59,56,91,81,70,30.00,29.87,12,3,12,0.00
2012-8-19,74,65,61,60,57,53,90,76,59,30.05,29.94,16,4,16,0.00
2012-8-20,78,67,59,57,54,52,82,64,46,30.06,29.94,10,2,10,0.00
2012-8-21,72,64,60,57,55,53,84,71,56,30.05,29.97,15,3,15,0.00
2012-8-22,72,64,60,55,53,50,78,68,48,30.13,30.05,10,2,10,0.00
2012-8-23,69,61,58,54,51,47,79,68,55,30.13,30.05,14,2,14,0.00
2012-8-24,66,56,53,52,49,47,85,76,60,30.23,30.13,8,1,8,0.00
2012-8-28,74,67,60,53,51,46,77,58,40,30.08,30.01,15,4,15,0.00
2012-8-29,73,64,59,56,54,51,86,71,47,30.16,30.06,13,3,13,0.00
2012-8-30,73,63,57,56,53,47,85,70,47,30.07,29.90,12,2,12,0.00
2012-8-31,71,62,52,54,49,46,84,64,42,30.00,29.93,11,2,11,0.00
2012-9-1,72,60,53,54,51,48,88,71,47,30.16,30.00,11,3,11,0.00
2012-9-2,70,61,53,53,50,46,86,69,41,30.22,30.13,11,2,11,0.00
2012-9-3,71,62,55,56,53,50,89,73,56,30.20,30.12,12,2,12,0.00
2012-9-4,75,64,54,57,54,50,90,71,50,30.23,30.11,13,2,13,0.00
2012-9-5,78,65,55,58,55,51,90,71,47,30.12,29.94,13,2,13,0.00
2012-9-6,80,68,58,56,54,51,84,63,42,30.06,29.96,13,2,13,0.00
2012-9-7,87,72,58,57,53,49,78,53,27,30.14,30.01,10,2,10,0.00
2012-9-8,80,68,59,60,55,51,85,66,39,30.03,29.91,19,4,19,0.00
2012-9-9,66,62,59,56,53,51,82,74,65,30.03,29.96,27,9,27,0.00
2012-9-10,68,59,52,56,48,42,92,70,40,30.23,29.95,26,4,26,0.19
2012-9-11,66,58,50,50,45,40,83,64,44,30.33,30.23,13,2,13,0.00
2012-9-12,70,58,49,51,47,43,87,68,46,30.38,30.24,13,2,13,0.00
2012-9-13,79,64,52,53,49,44,82,61,37,30.25,30.05,11,1,11,0.00
2012-9-14,77,64,53,54,51,49,87,64,40,30.10,30.01,12,2,12,0.00
2012-9-15,74,62,54,56,52,49,90,71,49,30.18,30.06,10,2,10,0.00
2012-9-16,76,63,52,56,53,48,89,70,47,30.24,30.12,11,2,11,0.00
2012-9-17,80,66,54,58,54,51,91,68,40,30.14,30.00,9,1,9,0.00
2012-9-18,82,67,55,58,53,46,89,64,29,30.09,30.00,10,2,10,0.00
2012-9-19,74,62,54,57,54,51,93,76,51,30.18,30.06,11,2,11,0.00
2012-9-20,70,59,51,57,53,49,94,80,59,30.13,30.03,14,3,14,0.00
2012-9-21,62,59,57,56,54,53,90,83,77,30.16,30.12,15,3,15,0.00
2012-9-22,67,60,56,55,52,50,92,76,57,30.18,30.13,9,2,9,0.00
2012-9-23,68,59,51,52,50,46,90,73,55,30.18,30.11,14,1,14,0.00
2012-9-24,70,60,52,55,52,49,91,75,53,30.16,30.09,10,2,10,0.00
2012-9-25,68,59,54,55,52,50,90,79,57,30.17,30.10,12,1,12,0.00
2012-9-26,67,57,49,53,51,48,96,81,59,30.15,30.06,12,2,12,0.00
2012-9-27,72,60,50,56,52,48,93,76,54,30.09,29.94,10,1,10,0.00
2012-9-28,75,63,56,57,54,51,89,74,45,30.03,29.94,8,1,8,0.00
2012-9-29,68,60,54,58,50,44,87,69,45,30.31,30.03,10,2,10,0.00
2012-9-30,68,58,48,52,47,45,90,70,47,30.42,30.31,11,2,11,0.00
2012-10-1,75,61,50,58,51,46,87,72,49,30.37,30.10,14,2,14,0.00
2012-10-2,66,57,50,49,42,31,90,61,32,30.30,30.16,12,2,12,0.00
2012-10-3,64,54,45,43,39,35,83,58,36,30.41,30.28,13,2,13,0.00
2012-10-4,65,55,46,46,41,35,79,60,43,30.31,30.25,10,2,13,0.00
2012-10-5,70,56,45,43,39,33,79,55,27,30.32,30.21,13,2,13,0.00
2012-10-6,73,59,47,42,37,27,73,48,19,30.26,30.12,11,1,11,0.00
2012-10-7,74,59,48,48,44,40,83,61,33,30.12,29.93,11,2,11,0.00
2012-10-8,70,59,48,50,47,45,91,69,43,30.05,29.93,9,2,9,0.00
2012-10-9,61,54,50,50,48,47,90,82,66,30.15,30.04,11,3,11,0.00
2012-10-10,56,51,46,49,47,45,96,87,78,30.06,29.99,7,1,7,0.00
2012-10-11,57,52,47,49,47,45,93,85,73,30.02,29.81,9,1,9,0.00
2012-10-12,57,54,47,52,50,45,94,86,79,30.00,29.84,28,8,28,0.07
2012-10-13,62,59,56,57,55,52,92,87,82,30.15,29.99,27,9,27,0.08
2012-10-14,64,61,59,59,57,56,95,88,77,30.12,29.88,22,5,22,0.21
2012-10-15,63,59,54,60,56,51,96,89,74,29.97,29.54,30,5,30,0.17
2012-10-16,63,56,50,57,48,43,85,73,49,30.30,29.56,19,4,19,0.00
2012-10-17,61,52,46,47,45,43,93,77,52,30.36,30.22,8,1,8,0.00
2012-10-18,67,55,47,52,47,41,93,76,42,30.23,29.81,25,3,25,0.56
2012-10-19,60,54,48,56,48,-100,94,85,76,29.83,29.77,31,-13,31,0.14
2012-10-20,52,48,46,46,42,39,90,79,64,29.91,29.80,26,7,26,0.01
2012-10-21,53,46,42,45,41,39,91,82,64,29.90,29.80,19,5,19,0.15
2012-10-22,46,43,39,43,40,37,93,89,81,29.79,29.58,12,1,12,0.29
2012-10-23,52,48,45,44,42,40,91,81,68,29.89,29.67,21,5,21,0.00
2012-10-24,53,48,45,45,43,41,90,83,66,30.19,29.87,11,2,11,0.11
2012-10-25,54,48,44,45,44,42,94,84,68,30.43,30.19,9,1,9,0.00
2012-10-26,54,49,46,50,45,42,94,87,78,30.34,30.03,25,3,25,0.07
2012-10-27,59,53,50,57,50,48,95,90,82,30.05,29.75,28,8,28,0.37
2012-10-28,60,56,52,57,52,50,94,87,77,29.96,29.77,24,3,24,0.21
2012-10-29,61,58,52,58,54,50,96,88,76,30.02,29.72,33,8,33,0.24
2012-10-30,60,57,55,58,56,54,97,95,88,29.99,29.76,10,1,10,0.97
2012-10-31,60,57,54,58,55,52,97,93,80,29.77,29.63,19,2,19,0.77
2012-11-1,58,55,53,54,52,51,96,90,80,30.03,29.73,20,4,20,0.31
2012-11-2,60,55,52,54,52,50,95,89,76,30.05,29.98,14,1,14,0.14
2012-11-3,60,56,54,56,54,52,95,90,84,30.20,29.98,21,4,21,0.02
2012-11-4,64,59,55,59,57,53,97,92,84,30.32,30.18,19,4,19,0.30
2012-11-5,60,54,48,53,48,44,95,82,57,30.41,30.18,10,1,10,0.05
2012-11-6,57,48,46,53,37,-100,95,81,80,30.18,29.94,30,-68,30,0.01
2012-11-7,54,49,43,48,42,38,91,77,58,30.15,29.96,16,3,16,0.00
2012-11-8,50,44,37,41,38,34,92,81,65,29.96,29.83,14,2,14,0.00
2012-11-9,48,42,37,37,32,-100,87,70,49,29.98,29.85,13,-9,13,0.00
2012-11-10,47,39,34,37,31,24,96,76,45,30.25,29.98,9,1,9,0.00
2012-11-11,48,42,36,43,37,32,93,83,71,30.27,30.10,9,2,9,0.43
2012-11-12,54,49,44,49,47,43,96,90,82,30.23,30.10,15,4,15,0.07
2012-11-13,53,50,49,49,48,46,94,91,80,30.24,30.15,16,3,16,0.23
2012-11-14,54,49,42,49,45,40,95,86,69,30.33,30.19,11,1,11,0.01
2012-11-15,52,43,38,44,40,36,97,89,70,30.30,29.96,9,1,9,0.00
2012-11-16,49,44,38,47,42,37,97,91,80,29.97,29.71,8,1,8,0.27
2012-11-17,56,49,45,48,44,40,94,83,63,29.73,29.48,30,7,30,0.11
2012-11-18,51,47,45,45,44,40,92,87,79,29.78,29.54,27,5,27,0.48
2012-11-19,56,52,48,53,48,-100,95,86,74,29.70,29.36,33,8,33,1.98
2012-11-20,52,49,44,48,45,41,93,87,72,29.71,29.55,30,4,30,0.43
2012-11-21,47,45,43,44,41,40,93,86,78,30.32,29.54,30,7,30,0.45
2012-11-22,49,45,41,42,40,37,89,81,65,30.39,30.21,11,1,11,0.00
2012-11-23,50,47,45,48,45,41,97,93,78,30.24,30.04,14,2,14,0.91
2012-11-24,52,47,42,46,44,40,96,89,77,30.29,30.16,9,1,9,0.02
2012-11-25,48,41,37,42,38,35,97,89,71,30.38,30.25,12,1,12,0.00
2012-11-26,51,41,35,38,35,32,94,80,52,30.25,30.07,8,1,8,0.01
2012-11-27,51,43,37,42,38,34,95,83,63,30.11,29.90,6,0,6,0.00
2012-11-28,49,45,40,45,41,37,92,87,78,29.91,29.61,11,1,11,0.11
2012-11-29,53,50,47,48,46,43,92,84,75,29.73,29.46,19,2,19,0.09
2012-11-30,58,51,48,50,47,45,95,87,66,29.47,29.38,25,5,25,1.02
2012-12-1,55,51,48,48,44,40,94,79,62,29.64,29.29,39,8,39,0.25
2012-12-2,49,48,46,46,44,42,93,87,80,29.81,29.19,31,9,31,0.51
2012-12-3,50,48,47,47,45,42,94,89,80,30.02,29.66,30,6,30,0.32
2012-12-4,54,50,47,51,46,42,95,85,74,29.84,29.55,31,9,31,0.42
2012-12-5,48,46,44,42,39,37,85,78,71,30.21,29.84,30,9,30,0.00
2012-12-6,46,45,43,42,41,40,89,86,82,30.20,30.05,26,7,26,0.02
2012-12-7,47,45,41,43,40,33,89,82,66,30.17,29.96,26,5,26,0.00
2012-12-8,45,41,40,38,37,36,90,84,72,30.38,30.17,10,2,10,0.00
2012-12-9,44,42,40,43,40,36,96,92,87,30.41,30.29,10,2,10,0.07
2012-12-10,46,44,42,44,42,40,95,92,89,30.45,30.10,15,2,15,0.00
2012-12-11,47,45,44,43,42,40,92,87,81,30.10,29.57,27,8,27,0.07
2012-12-12,45,43,42,42,41,40,94,93,90,30.05,29.64,8,1,8,0.22
2012-12-13,46,43,41,41,39,37,94,85,71,30.07,29.83,14,4,14,0.13
2012-12-14,45,41,38,40,37,35,93,86,71,29.97,29.81,16,2,16,0.22
2012-12-15,42,39,36,39,35,32,93,86,72,29.95,29.57,26,6,26,0.14
2012-12-16,47,41,39,43,38,36,94,89,84,29.76,28.99,29,8,29,0.59
2012-12-17,48,43,38,44,37,33,91,81,66,29.90,28.95,31,9,31,0.10
2012-12-18,40,38,36,35,34,32,92,84,79,30.00,29.90,24,9,24,0.01
2012-12-19,47,41,34,41,37,30,94,87,71,29.98,29.58,35,6,35,0.87
2012-12-20,46,42,36,42,39,34,95,88,80,29.85,29.53,28,6,28,0.47
2012-12-21,48,40,33,40,36,32,96,88,73,29.85,29.69,10,1,10,0.06
2012-12-22,48,44,40,44,39,37,94,85,68,29.76,29.51,33,5,33,0.06
2012-12-23,47,43,39,41,38,36,94,84,72,29.84,29.63,16,2,16,0.31
2012-12-24,43,42,40,40,39,38,94,91,84,30.18,29.84,14,2,14,0.09
2012-12-25,43,41,39,39,37,36,91,88,78,30.08,29.67,15,1,15,0.52
2012-12-26,45,43,40,42,39,36,92,86,77,29.93,29.72,28,5,28,0.12
2012-12-27,45,43,42,42,40,37,94,89,82,30.19,29.93,13,2,13,0.09
2012-12-28,48,44,40,41,39,34,92,83,72,30.19,30.12,6,1,6,0.01
2012-12-29,42,41,40,39,37,33,94,86,73,30.26,30.16,7,1,7,0.07
2012-12-30,45,37,33,39,35,32,96,92,78,30.34,30.25,9,2,9,0.01
2012-12-31,40,36,33,36,34,32,96,90,82,30.49,30.27,7,1,7,0.00
2013-1-1,44,36,30,36,30,-100,93,83,65,30.53,30.38,7,-10,7,0.00